Home   Weather   Cancún   Past weeks

Flag for Mexico Past Weather in Cancún, Quintana Roo, Mexico — Yesterday and Last 2 Weeks

Now
73 °F

Partly cloudy.


Feels Like: 73 °F
Forecast: 75 / 83 °F
Wind: 5 mph from Northeast

Location: Aerop. Internacional Merida - Yuc

Current Time: Dec 10, 2016 at 11:11:45 pm

Latest Report: Dec 10, 2016 at 9:50 pm


Visibility: 7 mi

Pressure: 30.16 "Hg

Humidity: 83%

Dew Point: 68 °F

Location of CancúnLocation

Past Weather in Cancún — Graph

°F

Cancún Temperature Yesterday

Maximum temperature yesterday: 88 °F (at 1:48 pm)
Minimum temperature yesterday: 72 °F (at 1:50 am)
Average temperature yesterday: 77 °F

High & Low Weather Summary for the Past Weeks

 TemperatureHumidityPressure
High95 °F (Dec 1, 3:45 pm)100% (Dec 9, 1:50 am)30.18 "Hg (Dec 9, 1:50 am)
Low64 °F (Nov 28, 5:48 am)30% (Dec 2, 3:54 pm)29.68 "Hg (Nov 29, 3:47 pm)
Average79 °F76%29.95 "Hg
* Reported Nov 25 9:46 pm — Dec 10 9:50 pm, Cancún, Weather by CustomWeather, © 2016

Note: Actual official high and low records may vary slightly from our data, if they occured in-between our weather recording intervals... More about our weather records

Advertising

Cancún Weather History for the Previous 24 Hours

Scroll right to see more
 ConditionsComfort  
Time TempWeatherWind HumidityBarometerVisibility
9:50 pm
Sat, Dec 10
73 °FPartly cloudy.5 mph83%30.16 "Hg7 mi
8:51 pm75 °FPartly cloudy.7 mph83%30.14 "Hg7 mi
7:47 pm75 °FPartly cloudy.6 mph83%30.13 "Hg7 mi
5:41 pm75 °FCloudy.5 mph83%30.10 "Hg7 mi
4:42 pm75 °FCloudy.13 mph83%30.09 "Hg7 mi
3:44 pm77 °FMostly cloudy.13 mph83%30.08 "Hg7 mi
2:47 pm75 °FMostly cloudy.15 mph89%30.10 "Hg6 mi
2:26 pm73 °FMostly cloudy.5 mph94%30.10 "Hg5 mi
1:15 pm73 °FRain. Mostly cloudy.8 mph94%30.13 "Hg1 mi
12:48 pm75 °FLight rain. Mostly cloudy.10 mph94%30.14 "Hg4 mi
12:27 pm73 °FRain. Low clouds.8 mph94%30.15 "Hg2 mi
11:47 am79 °FPartly sunny.10 mph79%30.16 "Hg7 mi
10:46 am79 °FBroken clouds.8 mph74%30.18 "Hg7 mi
9:49 am77 °FBroken clouds.12 mph79%30.16 "Hg7 mi
8:46 am73 °FPartly sunny.6 mph89%30.16 "Hg6 mi
7:48 am72 °FBroken clouds.7 mph94%30.14 "Hg7 mi
6:48 am72 °FPassing clouds.3 mph94%30.12 "Hg7 mi
5:48 am72 °FLight rain. Mostly cloudy.7 mph94%30.12 "Hg7 mi
4:52 am72 °FPassing clouds.6 mph94%30.12 "Hg7 mi
3:46 am72 °FMostly cloudy.3 mph100%30.13 "Hg7 mi
2:45 am73 °FMostly cloudy.14 mph94%30.13 "Hg7 mi
1:48 am73 °FRain. Overcast.9 mph94%30.13 "Hg3 mi
12:48 am73 °FThunderstorms. Overcast.6 mph94%30.13 "Hg5 mi
12:14 am73 °FThunderstorms. Overcast.7 mph100%30.14 "Hg3 mi
11:52 pm
Fri, Dec 9
73 °FThunderstorms. Overcast.7 mph100%30.15 "Hg2 mi
11:25 pm73 °FHeavy rain. Overcast.9 mph100%30.15 "Hg1 mi
11:04 pm73 °FHeavy rain. Overcast.15 mph94%30.15 "Hg1 mi
Weather by CustomWeather, © 2016

See weather overviewHow to use our weather pages